Starlink 32009

operational
NORAD ID: 60104 Int'l Des: 2024-117 Owner: SPXS Country: US Constellation: starlink
LEOCIRCULAR

Starlink 32009について

説明を読み込み中...

リアルタイム位置

3D地球を読み込み中...

次回通過

高度履歴

Altitude vs Time

uPlot chart will show altitude changes over time

軌道要素

1 60104U 24117P 25304.24467478 -.00000944 00000-0 -19744-4 0 9990
2 60104 53.1613 278.6569 0001344 96.4300 263.6854 15.30188981 77067
Epoch: Oct 31, 2025 • Age: 8 hours

現在のステータス

高度 480.9 km
速度 7.63 km/s
衛星直下点 53.16°N, 109.52°E
打ち上げ日 Jun 23, 2024
運用期間 1.3 years
タイプ internet

技術仕様

分類 Payload
質量 730.00 kg
乾燥質量 700.00 kg
総質量 730.00 kg
長さ 0.30 m
直径 4.10 m
スパン 29.00 m
形状 Box + pan
製造者 SPXS
バスタイプ Starlink V2M
フェーズステータス In Orbit
所有者/国 SPXS/US

大規模コンステレーション

Loading constellations...